IRIDIUM 70

Last updated on Wed Nov 29 2017 00:19:03 GMT+0000 (Coordinated Universal Time)

1 25342U 98032A 17332.52210101 .00000031 00000-0 40362-5 0 9990 2 25342 86.3957 155.6180 0001937 95.1282 316.6964 14.34219881 22650
UTC large
Height (km)
Speed (km/s)
/
Latitude / Longitude
Inclination (degrees)
Orbital Period (minutes)
Azimuth
Elevation
Range (km)
Doppler Factor

Next 0 passes for location: London (51.5072 / 0.1276)

Sorry there are no passes over London.